TimeEDT,TemperatureF,Dew PointF,Humidity,Sea Level PressureIn,VisibilityMPH,Wind Direction,Wind SpeedMPH,Gust SpeedMPH,PrecipitationIn,Events,Conditions,WindDirDegrees,DateUTC
1:51 AM,37.9,32.9,82,30.63,10.0,NNW,10.4,-,N/A,,Mostly Cloudy,330,2013-03-28 05:51:00
2:32 AM,37.4,33.8,87,29.89,10.0,NNW,9.2,-,N/A,,Mostly Cloudy,330,2013-03-28 06:32:00
2:51 AM,37.9,32.9,82,30.63,10.0,NNW,6.9,-,N/A,,Overcast,340,2013-03-28 06:51:00
3:08 AM,37.4,33.8,87,29.89,10.0,NNW,8.1,-,N/A,,Mostly Cloudy,340,2013-03-28 07:08:00
3:51 AM,36.9,32.9,86,30.64,10.0,North,6.9,-,0.01,,Mostly Cloudy,350,2013-03-28 07:51:00
4:26 AM,37.4,33.8,87,29.89,10.0,NW,8.1,-,N/A,,Mostly Cloudy,320,2013-03-28 08:26:00
4:51 AM,36.9,34.0,89,30.64,10.0,NNW,6.9,-,N/A,,Scattered Clouds,330,2013-03-28 08:51:00
5:51 AM,36.9,32.9,86,30.65,10.0,NNW,6.9,-,N/A,,Partly Cloudy,330,2013-03-28 09:51:00
6:51 AM,36.9,32.9,86,30.67,10.0,NW,5.8,-,N/A,,Mostly Cloudy,320,2013-03-28 10:51:00
7:51 AM,37.9,32.9,82,30.69,10.0,NW,5.8,-,N/A,,Overcast,320,2013-03-28 11:51:00
9:51 AM,41.9,31.1,66,30.70,10.0,NNW,8.1,-,N/A,,Mostly Cloudy,340,2013-03-28 13:51:00
10:51 AM,43.9,30.0,58,30.71,10.0,NNW,6.9,-,N/A,,Overcast,330,2013-03-28 14:51:00
12:51 PM,47.8,27.1,45,30.69,10.0,NNW,8.1,-,N/A,,Mostly Cloudy,330,2013-03-28 16:51:00
1:51 PM,47.8,27.1,45,30.69,10.0,North,9.2,-,N/A,,Mostly Cloudy,10,2013-03-28 17:51:00
2:51 PM,48.9,28.0,44,30.68,10.0,WNW,6.9,-,N/A,,Mostly Cloudy,290,2013-03-28 18:51:00
3:51 PM,47.8,28.0,46,30.69,10.0,NNW,13.8,-,N/A,,Mostly Cloudy,340,2013-03-28 19:51:00
4:51 PM,46.9,30.0,52,30.71,10.0,NNE,8.1,-,N/A,,Partly Cloudy,30,2013-03-28 20:51:00
5:51 PM,47.8,27.1,45,30.71,10.0,North,8.1,-,N/A,,Mostly Cloudy,360,2013-03-28 21:51:00
6:51 PM,46.9,29.1,50,30.74,10.0,North,5.8,-,N/A,,Partly Cloudy,350,2013-03-28 22:51:00
7:51 PM,45.0,30.0,56,30.74,10.0,West,6.9,-,N/A,,Mostly Cloudy,270,2013-03-28 23:51:00
8:51 PM,43.9,30.0,58,30.76,10.0,WNW,3.5,-,N/A,,Overcast,290,2013-03-29 00:51:00
9:51 PM,41.9,31.1,66,30.77,10.0,Calm,Calm,-,N/A,,Overcast,0,2013-03-29 01:51:00
10:51 PM,41.0,32.0,70,30.77,10.0,WNW,3.5,-,N/A,,Mostly Cloudy,300,2013-03-29 02:51:00
11:51 PM,41.0,31.1,68,30.76,10.0,NW,4.6,-,N/A,,Overcast,320,2013-03-29 03:51:00